Location: Aschenh�tte
(48.7768°N, 8.4563°E)
Time: 17:44:02
(UTC+00:00)

Daily predictions for brighter satellites

Satellite Brightness Start Highest point End
(mag) Time Altitude Azimuth Time Altitude Azimuth Time Altitude Azimuth
Cosmos 1624 Rocket 4.4 19:23:20 10° NNW 19:28:26 51° ENE 19:33:31 10° SE
Cosmos 2084 3.3 19:26:36 10° SSW 19:30:36 64° SE 19:34:44 10° NE
Resurs 01 Rocket 1.9 19:29:12 10° SSE 19:33:32 53° ENE 19:37:53 10° N
Gbstr 26 Del rocket 4.4 19:31:44 10° W 19:34:44 23° SW 19:37:48 10° SSE
Cosmos 1812 3.7 19:36:50 10° N 19:40:20 31° ENE 19:43:48 10° SE
Cosmos 1933 3.5 19:36:36 10° NNW 19:40:39 79° W 19:44:39 10° S
Cosmos 1689 Rocket 3.4 19:38:25 10° N 19:41:03 41° WNW 19:43:40 10° SW
Cosmos 1782 2.8 19:38:35 10° N 19:42:36 65° E 19:46:33 10° SSE
Landsat 7 3.9 19:39:16 10° SSE 19:43:57 62° ENE 19:48:40 10° N
ERS-1 Rocket 4.4 19:40:48 10° ESE 19:44:40 23° ENE 19:48:33 10° N
SL-27 R/B 3.0 19:45:28 10° S 19:48:48 37° ESE 19:52:10 10° NE
Cosmos 2333 Rocket 2.9 19:46:00 10° NNW 19:51:23 43° NE 19:56:33 11° ESE
BREEZE-M DEB (TANK) 3.1 19:49:51 10° W 19:52:35 39° SSW 19:58:28 11° SE
Cosmos 2237 Rocket 4.2 19:49:20 10° N 19:53:03 17° NE 19:56:45 10° ENE
Cosmos 2322 Rocket 2.5 19:47:54 10° NNW 19:53:30 67° WSW 19:59:02 10° SSE
Cosmos 2322 4.4 19:48:59 10° NNW 19:54:27 43° NE 19:59:33 12° ESE
SPOT 5 4.1 19:52:44 10° ESE 19:56:13 24° ENE 19:59:52 10° N
Cosmos 2195 Rocket 4.5 19:50:23 10° S 19:56:29 86° E 20:02:38 10° N
USA 234 4.3 19:51:06 10° ENE 19:57:16 46° N 20:03:27 10° WNW
ARIANE 5 R/B 3.8 19:54:19 11° ESE 19:57:55 29° ENE 20:01:43 10° N
Cosmos 1452 Rocket 4.4 19:55:01 10° N 19:59:51 35° ENE 20:04:09 12° ESE
BREEZE-M R/B 4.2 19:56:44 10° SSW 20:00:18 18° SSE 20:02:47 10° ESE
OBJECT-B 3.6 19:58:19 10° SW 20:00:32 17° W 20:02:47 10° NW
Cosmos 923 Rocket 4.4 19:55:28 10° SSW 20:00:48 71° WNW 20:06:10 10° NNE
BREEZE-M DEB (TANK) 4.3 20:01:53 10° W 20:05:09 42° SSW 20:12:58 13° SE
Cosmos 2219 Rocket 2.8 20:00:12 10° NNW 20:05:34 44° NE 20:10:11 14° ESE
Cosmos 2056 Rocket 3.6 20:04:58 10° NNW 20:10:20 79° WSW 20:15:28 10° SSE
ATLAS 5 CENTAUR R/B 2.8 20:06:32 10° NW 20:11:43 49° NE 20:17:08 13° ESE
Spot 2 Rocket 3.7 20:14:03 14° SE 20:18:18 57° ENE 20:23:19 10° N
SPOT 1/Viking Rocket 3.6 20:14:27 11° SSE 20:19:33 86° ENE 20:24:49 10° NNW
USA 245 3.3 20:16:54 14° SSE 20:20:24 67° ENE 20:23:49 10° N
Cosmos 1408 Rocket 3.8 20:17:00 11° SSE 20:20:57 48° E 20:25:07 10° NNE
NOSS 2-1 (E) 3.1 20:19:34 10° SW 20:22:49 73° NW 20:26:17 10° NE
Cosmos 1655 Rocket 4.4 20:19:07 11° SSE 20:24:48 46° E 20:30:52 10° NNE
SL-16 R/B 4.5 20:22:20 10° N 20:25:03 13° NNE 20:27:45 10° ENE
CZ-2C R/B 3.7 20:21:20 10° NNE 20:25:47 60° ESE 20:30:10 10° S
Cosmos 2026 Rocket 4.3 20:19:31 10° SSW 20:25:47 70° W 20:32:01 10° N
SL-16 R/B 3.8 20:21:52 10° NW 20:26:44 30° WSW 20:31:34 10° SSW
Cosmos 1743 Rocket 4.4 20:25:40 19° SE 20:28:07 32° E 20:32:03 10° NNE
GP-B 3.2 20:24:19 10° N 20:28:46 80° W 20:33:12 10° S
Cosmos 1151 Rocket 3.8 20:27:07 10° NNW 20:31:23 51° W 20:35:37 10° S
CARTOSAT-1 3.6 20:29:08 18° SSE 20:32:16 72° ENE 20:36:36 10° N
Cosmos 1680 Rocket 4.4 20:28:11 10° SW 20:33:19 51° WNW 20:38:28 10° NNE
NOSS 3-1 (C) 4.2 20:26:38 10° NW 20:34:03 79° SW 20:40:55 18° SSE
Lacrosse 5 3.0 20:33:37 19° SSE 20:35:22 22° SE 20:39:15 10° ENE
Okean 3 Rocket 4.1 20:33:02 10° SSW 20:37:30 63° WNW 20:42:02 10° N
Cosmos 2333 4.2 20:32:09 10° NNW 20:37:46 84° WSW 20:41:51 19° SSE
ERS-2 3.7 20:37:19 10° N 20:40:42 36° WNW 20:44:02 10° SW
Meteor 1-10 Rocket 4.2 20:36:52 10° NNW 20:42:28 90° E 20:46:47 17° S
CZ-4C R/B 4.3 20:40:45 10° NW 20:46:20 29° NNE 20:52:49 10° ENE
COSMOS 2487 2.4 20:45:40 26° S 20:47:18 53° ESE 20:50:37 10° NNE
Cosmos 1515 Rocket 3.6 20:44:19 10° NNW 20:48:45 78° W 20:51:44 20° S
COSMOS 2428 2.7 20:44:39 10° NNW 20:50:23 74° ENE 20:53:52 24° SE
USA 229 DEB 3.9 20:44:58 10° NW 20:52:17 90° ENE 20:57:36 22° SE
USA 229 3.9 20:45:04 10° NW 20:52:24 89° ENE 20:57:42 22° SE
COSMOS 2455 2.8 20:47:36 10° SSW 20:53:35 74° ESE 20:59:36 10° NE
Terra 1.9 20:54:30 27° SE 20:57:02 62° ENE 21:01:46 10° N
Cosmos 2360 Rocket 3.4 20:55:02 10° NW 21:00:05 35° WSW 21:04:37 12° SSW
Cosmos 2084 Rocket 3.7 20:56:15 10° NW 21:00:23 61° NE 21:02:26 29° ESE
Cosmos 1048 Rocket 4.0 20:59:48 21° S 21:03:07 55° ESE 21:08:08 10° NNE
Cosmos 972 Rocket 3.9 21:01:58 16° S 21:06:01 69° ESE 21:10:54 10° NNE
USA 102 4.2 21:08:33 35° ENE 21:09:28 39° NNE 22:37:18 10° NW
USA 102 4.2 21:08:33 35° ENE 21:09:28 39° NNE 21:16:28 10° NNW
Resurs 01 Rocket 4.0 21:07:08 10° SW 21:10:20 19° W 21:13:33 10° NW
NOSS 3-1 (A) 4.1 21:05:26 10° NW 21:12:52 75° SW 21:18:16 26° SSE
IRIDIUM 106 4.4 21:07:53 10° N 21:13:04 60° E 21:15:23 32° SSE
Cosmos 2266 Rocket 4.0 21:09:42 16° S 21:14:47 90° E 21:21:08 10° N
Cosmos 1707 Rocket 4.3 21:11:19 10° N 21:15:27 38° ENE 21:16:40 32° ESE
H-2A R/B 4.0 21:12:24 10° NNE 21:16:23 39° E 21:17:03 37° ESE
Okean 1 4.3 21:12:55 10° N 21:16:34 32° ENE 21:17:20 29° E
Cosmos 1980 4.2 21:11:13 10° NNW 21:16:46 51° NE 21:19:35 27° ESE
ERS-1 Rocket 3.3 21:20:14 25° S 21:23:05 59° W 21:28:04 10° NNW
Cosmos 2228 Rocket 3.1 21:20:42 10° NNW 21:25:10 81° W 21:26:53 37° S
Cosmos 2285 Rocket 4.2 21:23:27 10° NNW 21:29:42 66° WSW 21:33:03 28° S
Cosmos 2297 Rocket 2.9 21:31:26 31° ESE 21:32:09 32° ESE 21:37:07 10° NE
Cosmos 1805 Rocket 3.5 21:31:35 39° S 21:33:13 85° E 21:37:39 10° N
SPOT 5 3.5 21:31:58 25° SSW 21:34:05 42° W 21:38:24 10° NNW
Cosmos 2315 Rocket 4.1 21:27:44 10° N 21:34:07 80° W 21:37:37 29° S
ARIANE 5 R/B 3.9 21:31:52 20° SSW 21:34:17 35° W 21:38:21 10° NNW
BREEZE-M DEB (TANK) 2.1 21:29:32 10° WNW 21:34:34 55° SSW 21:34:36 54° SSW
Cosmos 972 4.5 21:32:40 34° S 21:34:56 65° ESE 21:39:56 10° NNE
NOSS 0 Rocket 3.9 21:28:47 10° NNW 21:35:04 89° WSW 21:37:53 35° SSE
Cosmos 2333 Rocket 3.2 21:30:27 10° NW 21:35:36 37° WSW 21:38:33 22° SSW
Cosmos 2237 Rocket 2.3 21:32:33 10° NNW 21:38:14 67° ENE 21:40:34 36° SE
USA 234 4.1 21:33:24 10° E 21:39:37 48° NNE 21:45:50 10° WNW
Cosmos 1452 Rocket 4.5 21:37:10 10° NW 21:42:01 39° WSW 21:44:29 25° SSW
Meteor 1-20 Rocket 4.2 21:40:21 33° S 21:42:59 79° E 21:48:46 10° NNE
Cosmos 2227 Rocket 3.0 21:44:49 30° ESE 21:45:10 30° ESE 21:50:02 10° NE
NOSS 2-2 (E) 4.4 21:40:44 10° NW 21:46:02 88° NE 21:49:13 35° SE
ALOS 2 4.1 21:45:45 22° E 21:46:51 24° ENE 21:50:23 10° N
Cosmos 2219 Rocket 3.3 21:44:23 10° NW 21:49:25 35° WSW 21:51:54 24° SSW
USA 40 PKM 4.1 21:46:35 10° NW 21:50:15 82° SW 21:50:40 67° SE
Sich 1 3.1 21:53:27 45° SSW 21:54:42 74° W 21:59:01 10° N
ATLAS 5 CENTAUR R/B 3.0 21:51:07 10° NW 21:56:27 43° WSW 21:58:38 32° SSW
Cosmos 1515 3.8 21:53:20 10° NNW 21:57:05 65° W 21:57:27 60° SW
Cosmos 1331 Rocket 4.3 21:52:53 10° NNW 21:58:01 58° WSW 21:59:36 40° SSW
Cosmos 1110 Rocket 4.5 21:54:16 10° NNW 21:59:26 52° WSW 22:01:08 37° SSW
Nadezhda 1 Rocket 4.3 21:58:08 10° N 22:04:27 55° ENE 22:06:40 38° SE
SL-16 R/B 2.9 22:05:14 10° NNW 22:10:42 46° NE 22:12:56 31° ESE
Cosmos 1633 Rocket 2.9 22:10:51 70° SSE 22:11:16 80° E 22:15:38 10° NNE
NOSS 2-2 (C) 4.3 22:06:48 10° NW 22:12:02 78° SW 22:14:24 43° SSE
Cosmos 1470 Rocket 3.8 22:14:08 49° E 22:14:08 49° E 22:18:17 10° NNE
Cosmos 1666 3.4 22:15:50 42° ENE 22:15:50 42° ENE 22:18:59 10° NNE
Lacrosse 5 1.8 22:12:44 10° SW 22:17:50 87° NW 22:22:56 10° NE
Cosmos 1933 Rocket 4.3 22:20:15 38° E 22:20:15 38° E 22:24:16 10° NNE
Cosmos 1666 Rocket 3.8 22:21:09 54° SW 22:21:59 67° WNW 22:26:27 10° N
SL-08 ROCKET BODY 4.4 22:21:32 42° SSW 22:23:48 86° W 22:30:02 10° N
Cosmos 1340 Rocket 3.6 22:28:39 41° ENE 22:28:39 41° ENE 22:31:49 10° NNE
COSMOS 2428 4.4 22:30:00 10° NW 22:34:01 20° W 22:35:52 17° SW
Terra 3.8 22:33:24 15° WSW 22:35:12 18° W 22:38:30 10° NW
CZ-4C R/B 3.2 22:29:12 10° NW 22:36:10 65° NE 22:41:11 25° ESE
COBE Rocket 4.1 22:36:50 50° SW 22:37:29 54° W 22:42:10 10° NNW
Meteor 2-4 Rocket 3.8 22:33:23 10° NNW 22:39:18 75° W 22:40:46 51° SSW
CZ-3B R/B 2.9 22:33:26 10° WNW 22:39:48 40° WSW 22:39:48 40° WSW
Timation 2 Rocket 3.9 22:39:27 51° SSE 22:40:30 59° ESE 22:46:35 10° NE
Cosmos 1992 Rocket 3.9 22:37:06 10° NNW 22:42:22 79° ENE 22:43:15 61° SE
Cosmos 2242 Rocket 3.7 22:40:02 10° N 22:44:26 62° ENE 22:44:34 61° E
Cosmos 1862 Rocket 4.1 22:40:56 10° NNW 22:45:05 46° W 22:45:19 46° WSW
USA 267 3.4 22:40:59 10° ENE 22:47:18 49° SE 22:48:10 47° SSE
Cosmos 2219 3.2 22:48:17 48° SSW 22:50:01 86° WNW 22:55:49 10° NNE
Meteor 1-5 Rocket 4.2 22:49:36 53° SSW 22:51:06 87° W 22:57:06 10° NNE
Spot 4 4.2 22:52:09 50° SW 22:52:40 53° W 22:57:25 10° NNW
Cosmos 1066 Rocket 4.4 22:48:13 10° N 22:54:05 64° ENE 22:55:26 49° SE
Cosmos 1703 Rocket 3.4 22:56:59 10° N 23:01:20 87° NW 23:01:20 87° NW
Cosmos 2082 3.7 23:01:12 57° SE 23:01:49 60° ESE 23:07:29 10° NE
Cosmos 1378 3.7 23:00:58 10° NNW 23:03:58 56° NNW 23:03:58 56° NNW
Cosmos 909 Rocket 4.2 23:02:47 41° SSW 23:05:27 85° SE 23:13:28 10° NE
Meteor 1-11 Rocket 3.7 23:05:19 58° SE 23:06:05 65° E 23:11:34 10° NNE
Okean 1-7 3.0 23:05:30 10° NNW 23:09:33 72° WNW 23:09:33 72° WNW
Cosmos 2181 Rocket 4.1 23:04:49 10° N 23:11:05 64° ENE 23:12:46 47° SE
Cosmos 2297 Rocket 2.9 23:13:12 27° WSW 23:16:00 49° NW 23:21:31 10° NNE
Nimbus 7 Rocket 4.3 23:11:38 10° NNE 23:17:39 76° ESE 23:18:53 57° S
Meteor 1-23 Rocket 4.3 23:14:34 10° N 23:20:19 69° ENE 23:21:35 53° SE
Cosmos 2237 Rocket 3.7 23:17:28 10° NW 23:21:48 23° WSW 23:22:23 22° WSW
USA 234 3.2 23:18:03 24° ESE 23:22:17 84° NNE 23:28:52 10° NW
ALOS 2 3.3 23:23:09 42° W 23:23:09 42° W 23:27:09 10° NNW
Cosmos 614 Rocket 3.9 23:23:41 64° SE 23:23:59 66° ESE 23:29:12 10° NNE
Cosmos 1461 3.1 23:27:18 74° ENE 23:27:18 74° ENE 23:31:23 10° NE
Meteor 1-13 Rocket 4.3 23:22:18 10° NNW 23:27:57 63° W 23:28:50 55° SW
Cosmos 1709 Rocket 4.0 23:26:19 51° SSW 23:28:03 78° W 23:34:29 10° N
Cosmos 2227 Rocket 2.8 23:26:37 32° WSW 23:28:58 51° NW 23:34:31 10° NNE
SL-24 R/B - RUBIN 2 4.1 23:26:41 10° NW 23:31:48 63° NE 23:32:45 51° E
Cosmos 2263 Rocket 2.8 23:33:28 41° ESE 23:33:52 41° ESE 23:39:11 10° NE
Cosmos 2344 4.1 23:34:40 35° SE 23:36:03 38° ESE 23:42:57 10° NE
Cosmos 1603 4.1 23:33:53 10° NNW 23:39:27 57° ENE 23:41:31 37° ESE
Cosmos 1536 3.2 23:40:44 59° NW 23:40:44 59° NW 23:44:25 10° N
PSLV R/B 3.7 23:37:41 10° NNE 23:42:26 70° ESE 23:42:34 70° ESE
Cosmos 1842 4.1 23:40:45 10° N 23:44:12 44° ENE 23:44:12 44° ENE
Okean 3 4.0 23:42:01 10° NNW 23:45:46 50° WNW 23:45:46 50° WNW
Cosmos 1869 Rocket 3.7 23:47:07 64° W 23:47:08 64° WNW 23:51:35 10° N
ASTEX 1 3.9 23:46:47 45° ESE 23:47:37 50° ENE 23:52:24 10° N
Cosmos 44 3.7 23:46:40 10° NW 23:51:25 52° WSW 23:51:25 52° WSW
Thor Agena Rocket 3.3 23:46:54 10° NNE 23:51:59 90° W 23:52:34 71° SSW
SL-16 R/B 3.0 23:49:38 10° NW 23:54:41 34° WSW 23:54:47 34° WSW
